Flag for Canada Weather past 2 weeks in Selkirk, Manitoba, Canada

Now
-13 °F

Extremely cold.


Feels Like: -25 °F
Forecast: -18 / -7 °F
Wind: 5 mph from North

Location: Winnipeg The Forks

Current Time: Dec 28, 2014 at 5:36:57 AM

Latest Report: Dec 28, 2014 at 5:00 AM


Visibility: N/A

Pressure: 30.32 "Hg

Humidity: 79%

Dew point: -18 °F

Location of SelkirkLocation

Historic Weather in Selkirk — Graph

°F

Selkirk temperature yesterday

Maximum temperature yesterday: 10 °F (at 2:00 PM)
Minimum temperature yesterday: -6 °F (at 11:00 PM)
Average temperature yesterday: 4 °F

Past Weeks' High & Low Weather Summary

 TemperatureHumidityPressure
High35 °F (Dec 13, 8:00 PM)100% (Dec 13, 11:00 AM)30.47 "Hg (Dec 13, 11:00 AM)
Low-12 °F (Dec 28, 4:00 AM)67% (Dec 27, 9:00 PM)29.40 "Hg (Dec 24, 10:00 PM)
Average21 °F88%30.02 "Hg
* Reported Dec 13 4:00 AM — Dec 28 4:00 AM, Selkirk, Weather by CustomWeather, © 2014

Note: Actual official high and low records may vary slightly from our data, if they occured in-between our weather recording intervals... More about our weather records

Advertising

Selkirk weather history for previous 24 hours

 ConditionsComfort  
Time TempWeatherWind HumidityBarometerVisibility
4:00 AM
Dec 28
-12 °FExtremely cold.3 mph73%30.31 "HgN/A
3:00 AM-12 °FExtremely cold.3 mph73%30.30 "HgN/A
2:00 AM-11 °FExtremely cold.6 mph73%30.27 "HgN/A
1:00 AM-10 °FFrigid.5 mph81%30.26 "HgN/A
12:00 AM-8 °FFrigid.5 mph73%30.25 "HgN/A
11:00 PM
Dec 27
-6 °FFrigid.7 mph72%30.24 "HgN/A
10:00 PM-3 °FFrigid.7 mph69%30.21 "HgN/A
9:00 PM2 °FFrigid.7 mph67%30.19 "HgN/A
8:00 PM2 °FFrigid.6 mph71%30.18 "HgN/A
7:00 PM1 °FFrigid.2 mph75%30.17 "HgN/A
6:00 PM2 °FFrigid.3 mph75%30.16 "HgN/A
5:00 PM4 °FFrigid.3 mph75%30.14 "HgN/A
4:00 PM7 °FFrigid.5 mph74%30.11 "HgN/A
3:00 PM8 °FFrigid.5 mph72%30.08 "HgN/A
2:00 PM10 °FFrigid.5 mph70%30.06 "HgN/A
1:00 PM9 °FFrigid.5 mph79%30.06 "HgN/A
12:00 PM9 °FFrigid.3 mph74%30.08 "HgN/A
11:00 AM9 °FFrigid.3 mph78%30.09 "HgN/A
10:00 AM6 °FFrigid.6 mph80%30.11 "HgN/A
9:00 AM5 °FFrigid.6 mph79%30.11 "HgN/A
8:00 AM4 °FFrigid.6 mph80%30.11 "HgN/A
7:00 AM3 °FFrigid.5 mph84%30.13 "HgN/A
6:00 AM2 °FFrigid.3 mph84%30.13 "HgN/A
5:00 AM1 °FFrigid.7 mph84%30.17 "HgN/A
Weather by CustomWeather, © 2014

See weather overviewHow to use our weather pages